Regional Weather Roundup
Issued by NWS

Home | Current Version | Previous Version | Text Only | Print | Product List | Glossary On
Versions: 1 2 3 4 5 6 7 8 9 10 11 12 13 14 15 16 17 18 19 20 21 22 23 24 25 26 27 28 29 30 31 32 33 34 35 36 37 38 39 40 41 42 43 44 45 46 47 48 49 50
000
ASUS44 KFWD 050510
RWRTX
NORTH TEXAS HOURLY WEATHER ROUNDUP
NATIONAL WEATHER SERVICE FORT WORTH TX
1200 AM CDT SUN JUL 05 2015

NOTE: "FAIR" INDICATES FEW OR NO CLOUDS BELOW 12,000 FEET WITH NO
SIGNIFICANT WEATHER AND/OR OBSTRUCTIONS TO VISIBILITY.

TXZ118-119-050600-
DALLAS/FORT WORTH METROPLEX

CITY           SKY/WX    TMP DP  RH WIND       PRES   REMARKS
DFW AIRPORT    PTCLDY    84  70  62 S13       29.97R
DALLAS LOVE    PTCLDY    85  71  63 S13       29.97S HX  90
FTW MEACHAM    PTCLDY    84  72  67 S13       29.97R
DAL-EXECUTIVE  CLEAR     82  71  69 S8        29.98R
FTW-ALLIANCE   PTCLDY    83  71  67 S13G20    29.97R
FTW-NAS-JRB    PTCLDY    84  72  67 S13       29.97S
FTW-SPINKS     PTCLDY    82  71  71 S9        29.99R
ARLINGTON      CLEAR     84  70  62 S9        29.98R
GRAND PRAIRIE  CLEAR     83  72  70 S7        29.99S
ADDISON        CLEAR     84  73  68 S10       29.99S HX  91
MESQUITE       CLEAR     81  72  73 S8        29.99S
LANCASTER      CLEAR     80  70  71 S5        29.99S
$$

TXZ091>094-102>105-117-120-121-131>134-050600-
NORTH CENTRAL TEXAS

CITY           SKY/WX    TMP DP  RH WIND       PRES   REMARKS
SHRMAN/DENISON MOCLDY    76  70  80 SE10      29.98F
GAINESVILLE    PTCLDY    75  69  80 E7        30.00S
BRIDGEPORT     MOCLDY    82  72  70 S9        29.98S
DECATUR        PTCLDY    82  69  64 S10       29.98S
DENTON         PTCLDY    81  72  74 SE8       29.97R
MCKINNEY       PTCLDY    78  72  81 E7        29.98S
GREENVILLE     MOCLDY    75  72  88 S5        29.98F
ROCKWALL       PTCLDY    82  73  75 S10       29.97F
TERRELL        PTCLDY    80  73  79 S3        29.99R
WAXAHACHIE     CLEAR     79  73  81 S7        30.00S
CLEBURNE       PTCLDY    81  75  83 S9        30.00S
GRANBURY       CLOUDY    83  72  68 SE7       29.99R
$$

TXZ083>090-098>101-113>116-127>130-139>142-154-155-050600-
WESTERN NORTH TEXAS

CITY           SKY/WX    TMP DP  RH WIND       PRES   REMARKS
WICHITA FALLS  MOCLDY    78  70  76 SE7       29.95R
WF-KICKAPOO    MOCLDY    82  70  65 SE8       29.96R
VERNON         CLOUDY    83  63  51 S9        29.94S
ABILENE        PTCLDY    79  65  62 SE8       29.99R
ABILENE-DYESS  PTCLDY    77  67  69 S8        29.97S
BRECKENRIDGE   MOCLDY    82  66  60 S9        29.96S
GRAHAM         CLOUDY    82  70  68 SE6       29.95R
MINERAL WELLS  MOCLDY    82  70  66 S10       29.96R
STEPHENVILLE   PTCLDY    79  70  73 S6        30.02S
COMANCHE       PTCLDY    77  70  79 SE6       30.00S
BROWNWOOD      PTCLDY    79  66  65 SE8       30.00S
COLEMAN        CLEAR     78  68  71 S6        30.00S
BRADY          CLEAR     79  66  65 N7        30.02S
$$

TXZ143>147-156>162-174-175-050600-
CENTRAL TEXAS

CITY           SKY/WX    TMP DP  RH WIND       PRES   REMARKS
WACO           PTCLDY    81  73  76 S13       29.98S
WACO-MCGREGOR  CLEAR     79  70  73 S12       30.00S
HILLSBORO      CLEAR     78  70  77 SE7       29.99R
CORSICANA      CLEAR     81  73  76 S7        30.00R
MEXIA          CLEAR     76  73  88 SE16      29.99S
HEARNE         CLEAR     78  74  88 SE7       30.01S
CAMERON        PTCLDY    79  74  84 S6        30.00R
TEMPLE         PTCLDY    79  70  73 SE13      30.00R
KILLEEN        PTCLDY    78  72  81 S9        30.00R
KILLEEN-SKYLRK PTCLDY    81  70  69 S10       30.00R
FORT HOOD      PTCLDY    79  72  78 S9        30.00R
GATESVILLE     PTCLDY    81  72  74 S6        30.02R
HAMILTON       PTCLDY    79  71  76 S12       30.01S
LAMPASAS       CLEAR     81  75  82 S9        30.01R
$$

TXZ095>097-106>112-122>126-135>138-148>153-164>167-050600-
EAST TEXAS

CITY           SKY/WX    TMP DP  RH WIND       PRES   REMARKS
PARIS          CLOUDY    73  72  94 SE6       30.00S
SULPHUR SPRNGS MOCLDY    77  71  81 S6        30.01S
MOUNT PLEASANT CLOUDY    74  72  91 SE3       30.02R
GILMER         MOCLDY    74  70  87 S6        30.00S
MINEOLA          N/A     75  73  94 SE5       30.00S
TYLER          PTCLDY    77  72  84 S7        30.01R
LONGVIEW       CLOUDY    78  72  81 S9        30.00S
MARSHALL       CLOUDY    76  73  89 S5        30.02S
ATHENS         PTCLDY    79  72  78 S5        29.99S
PALESTINE      PTCLDY    78  74  86 SE5       30.02S
JACKSONVILLE   PTCLDY    75  73  93 S8        30.04R
HENDERSON      MOCLDY    74  72  94 S3        30.03R
CENTER         FAIR      71  70  98 SE3       30.01F
NACOGDOCHES    MOCLDY   N/A N/A N/A SE3       30.01F
LUFKIN         PTCLDY    77  72  84 SE7       30.02S
$$

SUPPLEMENTAL OBSERVATIONS (CENTRAL)

CITY           SKY/WX    TMP DP  RH WIND       PRES   REMARKS
CADDO GRASSLND   N/A     72  68  88 SE5         N/A
PAT MAYSE LAKE   N/A     73  72  94 E3          N/A
GREENVILLE       N/A     75  70  83 S5          N/A
CEDAR HILL       N/A     81  70  69 S9          N/A
MCGREGOR         N/A     79  72  78 S12         N/A
TEMPLE           N/A     79  73  83 S9          N/A
$$

SUPPLEMENTAL OBSERVATIONS (WEST)

CITY           SKY/WX    TMP DP  RH WIND       PRES   REMARKS
MILLERS CREEK    N/A     81  66  61 S10         N/A
POSSUM KINGDOM   N/A     82  66  57 SE7         N/A
LBJ GRASSLAND    N/A     82  70  65 S9          N/A
GRANBURY         N/A     82  72  69 SE8         N/A
HAMBY            N/A     81  64  57 S7          N/A
IVIE RESERVOIR   N/A     81  66  61 S9          N/A
COLORADO BEND    N/A     79  70  73 SW9         N/A
$$

SUPPLEMENTAL OBSERVATIONS (EAST)

CITY           SKY/WX    TMP DP  RH WIND       PRES   REMARKS
TEXARKANA        N/A     70  68  94 CALM        N/A
LINDEN           N/A     72  68  88 S1          N/A
GILMER           N/A     75  70  83 S3          N/A
HENDERSON        N/A     73  70  88 S5          N/A
N SABINE NF      N/A     72  70  94 MISG        N/A
S SABINE NF      N/A     73  72  94 CALM        N/A
$$

SUPPLEMENTAL OBSERVATIONS ARE A COLLECTION OF AUTOMATED INSTRUMENTS
THAT ARE MAINTAINED BY A VARIETY OF FEDERAL AND STATE AGENCIES.
CERTAIN ELEMENTS...SUCH AS HUMIDITY VALUES AND SUSTAINED WIND
SPEEDS...MAY BE APPROXIMATED.



USA.gov is the U.S. government's official web portal to all federal, state and local government web resources and services.